Weather History for Lawrence, KS

Change the Weather History Date:

Saturday, February 2, 2013

  Actual Average Record
Temperature  
Mean Temperature 37 °F 31 °F  
Max Temperature 51 °F 42 °F 64 °F (2003)
Min Temperature 22 °F 20 °F -2 °F (2011)
Degree Days  
Heating Degree Days 28 34  
Month to date heating degree days 77 68  
Since 1 July heating degree days 3014 3219  
Cooling Degree Days 0 0  
Month to date cooling degree days 0 0  
Year to date cooling degree days 0 0  
Moisture  
Dew Point 25 °F    
Average Humidity 65    
Maximum Humidity 81    
Minimum Humidity 48    
Precipitation  
Precipitation 0.00 in 0.04 in 0.02 in (2004)
Month to date precipitation 0.00 0.09  
Year to date precipitation 0.96 1.10  
Sea Level Pressure  
Sea Level Pressure 30.18 in    
Wind  
Wind Speed 7 mph (WNW)    
Max Wind Speed 17 mph    
Max Gust Speed 20 mph    
Visibility 10 miles    
Events      
T = Trace of Precipitation, MM = Missing Value Source: NWS Daily Summary

Daily Weather History Graph

Daily Weather History Graph

Search for Another Location

Airport:

Trip Planner

Search our weather history database for the weather conditions in past years. The results will help you decide how hot, cold, wet, or windy it might be!

Date:

Astronomy

Feb. 02, 2013 Rise Set
Actual Time 7:26 AM CST 5:43 PM CST
Civil Twilight 6:58 AM CST 6:11 PM CST
Nautical Twilight 6:26 AM CST 6:43 PM CST
Astronomical Twilight 5:54 AM CST 7:14 PM CST
Moon No Moon Rise 10:41 AM CST (2/2)
Length of Visible Light 11h 13m
Length of Day
10h 17m
Waning Gibbous, 59% of the Moon is Illuminated
Feb 2
Waning Gibbous
Feb 3
Last Quarter
Feb 10
New
Feb 17
First Quarter
Feb 25
Full

Hourly Weather History & Observations

Time (CST) Temp. Windchill Dew Point Humidity Pressure Visibility Wind Dir Wind Speed Gust Speed Precip Events Conditions
12:52 AM 25.0 °F 20.7 °F 14.0 °F 63% 30.16 in 10.0 mi South 3.5 mph - N/A   Clear
1:52 AM 28.0 °F - 16.0 °F 61% 30.16 in 10.0 mi Calm Calm - N/A   Overcast
2:52 AM 28.9 °F 22.8 °F 16.0 °F 58% 30.17 in 10.0 mi WSW 5.8 mph - N/A   Overcast
3:52 AM 30.0 °F 25.2 °F 17.1 °F 59% 30.17 in 10.0 mi West 4.6 mph - N/A   Overcast
4:52 AM 27.0 °F 20.5 °F 17.1 °F 66% 30.18 in 10.0 mi NW 5.8 mph - N/A   Mostly Cloudy
5:52 AM 23.0 °F 18.4 °F 16.0 °F 74% 30.19 in 10.0 mi NW 3.5 mph - N/A   Partly Cloudy
6:52 AM 23.0 °F 18.4 °F 16.0 °F 74% 30.21 in 10.0 mi WNW 3.5 mph - N/A   Clear
7:52 AM 25.0 °F 19.3 °F 19.0 °F 78% 30.22 in 10.0 mi NW 4.6 mph - N/A   Partly Cloudy
8:52 AM 30.0 °F 25.2 °F 21.0 °F 69% 30.22 in 10.0 mi NW 4.6 mph - N/A   Clear
9:52 AM 36.0 °F 30.3 °F 24.1 °F 62% 30.22 in 10.0 mi WNW 6.9 mph - N/A   Clear
10:52 AM 39.0 °F 34.8 °F 25.0 °F 57% 30.25 in 10.0 mi NNW 5.8 mph - N/A   Mostly Cloudy
12:52 PM 45.0 °F 40.1 °F 30.0 °F 56% 30.21 in 10.0 mi West 9.2 mph - N/A   Clear
1:52 PM 48.0 °F - 32.0 °F 54% 30.19 in 10.0 mi WNW 9.2 mph - N/A   Clear
2:52 PM 51.1 °F - 32.0 °F 48% 30.18 in 10.0 mi WNW 15.0 mph - N/A   Clear
3:52 PM 50.0 °F - 32.0 °F 50% 30.16 in 10.0 mi WNW 11.5 mph - N/A   Clear
4:52 PM 48.9 °F - 32.0 °F 52% 30.15 in 10.0 mi West 8.1 mph - N/A   Clear
5:52 PM 43.0 °F 38.8 °F 30.0 °F 60% 30.16 in 10.0 mi West 6.9 mph - N/A   Clear
6:52 PM 42.1 °F 37.7 °F 30.9 °F 65% 30.15 in 10.0 mi WSW 6.9 mph - N/A   Clear
7:52 PM 42.1 °F 39.2 °F 30.9 °F 65% 30.14 in 10.0 mi SW 4.6 mph - N/A   Mostly Cloudy
8:52 PM 43.0 °F 37.7 °F 32.0 °F 65% 30.12 in 10.0 mi West 9.2 mph - N/A   Mostly Cloudy
9:52 PM 42.1 °F 35.7 °F 30.9 °F 65% 30.15 in 10.0 mi NW 11.5 mph - N/A   Mostly Cloudy
10:52 PM 36.0 °F 32.1 °F 28.9 °F 76% 30.15 in 10.0 mi NNW 4.6 mph - N/A   Clear
11:52 PM 33.1 °F 28.7 °F 28.0 °F 82% 30.17 in 10.0 mi NW 4.6 mph - N/A   Clear